H1 CPF 2 NER 2025 9 22 9 265 01 glonass131 H2 1301901 9131 39155 2025 9 22 0 0 0 2025 9 25 23 45 0 900 1 1 0 0 0 1 H9 10 0 60940 0.00000 0 -1602261.711 23089976.444 10843340.554 10 0 60940 900.00000 0 -1715441.357 21586204.096 13580988.697 10 0 60940 1800.00000 0 -2020024.394 19785485.078 16056451.606 10 0 60940 2700.00000 0 -2546901.315 17742097.589 18221959.688 10 0 60940 3600.00000 0 -3316026.360 15517262.358 20035691.163 10 0 60940 4500.00000 0 -4335359.176 13176729.632 21462564.977 10 0 60940 5400.00000 0 -5600311.858 10788195.022 22474909.535 10 0 60940 6300.00000 0 -7093725.538 8418649.017 23052995.513 10 0 60940 7200.00000 0 -8786379.397 6131767.688 23185422.934 10 0 60940 8100.00000 0 -10638013.530 3985450.576 22869354.953 10 0 60940 9000.00000 0 -12598826.237 2029606.196 22110593.010 10 0 60940 9900.00000 0 -14611386.727 304276.022 20923490.407 10 0 60940 10800.00000 0 -16612886.947 -1161825.430 19330703.943 10 0 60940 11700.00000 0 -18537641.578 -2352293.273 17362785.946 10 0 60940 12600.00000 0 -20319734.130 -3263495.675 15057621.958 10 0 60940 13500.00000 0 -21895699.946 -3904497.222 12459722.342 10 0 60940 14400.00000 0 -23207134.137 -4296443.774 9619379.171 10 0 60940 15300.00000 0 -24203114.402 -4471433.070 6591702.941 10 0 60940 16200.00000 0 -24842335.339 -4470917.418 3435556.618 10 0 60940 17100.00000 0 -25094862.101 -4343705.211 212407.351 10 0 60940 18000.00000 0 -24943426.686 -4143645.920 -3014881.377 10 0 60940 18900.00000 0 -24384209.334 -3927097.499 -6183292.423 10 0 60940 19800.00000 0 -23427069.342 -3750285.361 -9230906.446 10 0 60940 20700.00000 0 -22095213.454 -3666667.345 -12098135.425 10 0 60940 21600.00000 0 -20424314.442 -3724419.366 -14728911.632 10 0 60940 22500.00000 0 -18461116.552 -3964151.423 -17071806.379 10 0 60940 23400.00000 0 -16261586.960 -4416953.709 -19081054.387 10 0 60940 24300.00000 0 -13888692.191 -5102858.107 -20717461.966 10 0 60940 25200.00000 0 -11409894.566 -6029782.027 -21949180.059 10 0 60940 26100.00000 0 -8894475.696 -7193000.378 -22752326.400 10 0 60940 27000.00000 0 -6410800.981 -8575168.273 -23111444.755 10 0 60940 27900.00000 0 -4023641.049 -10146893.139 -23019792.897 10 0 60940 28800.00000 0 -1791662.905 -11867831.111 -22479454.914 10 0 60940 29700.00000 0 234804.437 -13688260.226 -21501277.178 10 0 60940 30600.00000 0 2015637.556 -15551062.713 -20104631.066 10 0 60940 31500.00000 0 3522343.353 -17394031.653 -18317008.995 10 0 60940 32400.00000 0 4738984.186 -19152403.984 -16173463.543 10 0 60940 33300.00000 0 5662568.094 -20761512.840 -13715902.396 10 0 60940 34200.00000 0 6302891.554 -22159447.825 -10992254.434 10 0 60940 35100.00000 0 6681845.184 -23289612.140 -8055524.483 10 0 60940 36000.00000 0 6832215.131 -24103070.457 -4962756.012 10 0 60940 36900.00000 0 6796033.552 -24560590.696 -1773922.533 10 0 60940 37800.00000 0 6622549.926 -24634296.144 1449230.699 10 0 60940 38700.00000 0 6365910.040 -24308860.837 4644372.561 10 0 60940 39600.00000 0 6082640.981 -23582200.226 7749777.252 10 0 60940 40500.00000 0 5829047.764 -22465630.036 10705498.949 10 0 60940 41400.00000 0 5658630.282 -20983487.938 13454508.761 10 0 60940 42300.00000 0 5619627.848 -19172234.464 15943773.790 10 0 60940 43200.00000 0 5752792.985 -17079070.513 18125259.466 10 0 60940 44100.00000 0 6089486.503 -14760128.047 19956837.813 10 0 60940 45000.00000 0 6650172.691 -12278307.621 21403085.991 10 0 60940 45900.00000 0 7443377.239 -9700850.298 22435961.302 10 0 60940 46800.00000 0 8465151.879 -7096742.110 23035340.776 10 0 60940 47700.00000 0 9699069.336 -4534055.982 23189415.494 10 0 60940 48600.00000 0 11116750.872 -2077338.709 22894931.938 10 0 60940 49500.00000 0 12678907.132 214850.901 22157274.921 10 0 60940 50400.00000 0 14336852.024 2292152.157 20990389.041 10 0 60940 51300.00000 0 16034429.747 4114270.029 19416538.146 10 0 60940 52200.00000 0 17710277.638 5652422.548 17465905.015 10 0 60940 53100.00000 0 19300332.816 6890307.121 15176036.364 10 0 60940 54000.00000 0 20740479.551 7824544.248 12591141.277 10 0 60940 54900.00000 0 21969227.252 8464578.506 9761254.295 10 0 60940 55800.00000 0 22930306.426 8832039.309 6741277.534 10 0 60940 56700.00000 0 23575072.213 8959586.871 3589919.229 10 0 60940 57600.00000 0 23864612.204 8889291.042 368548.871 10 0 60940 58500.00000 0 23771466.912 8670611.153 -2860008.338 10 0 60940 59400.00000 0 23280887.263 8358062.820 -6032713.100 10 0 60940 60300.00000 0 22391572.990 8008671.843 -9087563.708 10 0 60940 61200.00000 0 21115858.097 7679325.149 -11964831.064 10 0 60940 62100.00000 0 19479333.549 7424133.733 -14608250.442 10 0 60940 63000.00000 0 17519921.889 7291922.279 -16966144.240 10 0 60940 63900.00000 0 15286442.473 7323954.787 -18992451.458 10 0 60940 64800.00000 0 12836728.224 7551995.139 -20647642.000 10 0 60940 65700.00000 0 10235374.220 7996786.746 -21899496.659 10 0 60940 66600.00000 0 7551214.219 8667016.893 -22723736.885 10 0 60940 67500.00000 0 4854632.597 9558810.073 -23104492.101 10 0 60940 68400.00000 0 2214825.685 10655771.409 -23034596.064 10 0 60940 69300.00000 0 -302871.918 11929577.381 -22515707.643 10 0 60940 70200.00000 0 -2639484.085 13341087.529 -21558255.217 10 0 60940 71100.00000 0 -4744609.241 14841928.563 -20181207.584 10 0 60940 72000.00000 0 -6578264.755 16376482.467 -18411677.795 10 0 60940 72900.00000 0 -8112284.920 17884193.385 -16284369.546 10 0 60940 73800.00000 0 -9331217.241 19302095.111 -13840878.725 10 0 60940 74700.00000 0 -10232683.077 20567452.306 -11128865.308 10 0 60940 75600.00000 0 -10827191.391 21620404.387 -8201113.033 10 0 60940 76500.00000 0 -11137417.173 22406501.656 -5114496.054 10 0 60940 77400.00000 0 -11196978.227 22879028.292 -1928873.263 10 0 60940 78300.00000 0 -11048764.519 23001016.302 1294068.143 10 0 60940 79200.00000 0 -10742892.354 22746867.820 4491997.736 10 0 60940 80100.00000 0 -10334370.571 22103519.652 7603133.309 10 0 60940 81000.00000 0 -9880577.184 21071103.039 10567416.833 10 0 60940 81900.00000 0 -9438652.084 19663072.380 13327653.689 10 0 60940 82800.00000 0 -9062914.221 17905798.276 15830594.941 10 0 60940 83700.00000 0 -8802410.261 15837641.910 18027943.743 10 0 60940 84600.00000 0 -8698695.944 13507548.543 19877268.479 10 0 60940 85500.00000 0 -8783941.735 10973217.108 21342806.873 10 0 60941 0.00000 0 -9079441.086 8298920.020 22396147.122 10 0 60941 900.00000 0 -9594583.621 5553059.496 23016774.555 10 0 60941 1800.00000 0 -10326336.235 2805562.421 23192472.548 10 0 60941 2700.00000 0 -11259255.651 125214.069 22919571.791 10 0 60941 3600.00000 0 -12366033.685 -2422957.955 22203040.831 10 0 60941 4500.00000 0 -13608555.267 -4780144.511 21056415.338 10 0 60941 5400.00000 0 -14939428.031 -6895959.575 19501565.389 10 0 60941 6300.00000 0 -16303922.629 -8730297.685 17568302.792 10 0 60941 7200.00000 0 -17642245.284 -10254766.675 15293833.433 10 0 60941 8100.00000 0 -18892049.535 -11453635.028 12722062.606 10 0 60941 9000.00000 0 -19991083.074 -12324252.825 9902764.375 10 0 60941 9900.00000 0 -20879858.700 -12876926.961 6890629.210 10 0 60941 10800.00000 0 -21504236.197 -13134254.208 3744207.117 10 0 60941 11700.00000 0 -21817804.577 -13129938.884 524766.322 10 0 60941 12600.00000 0 -21783961.617 -12907144.220 -2704909.892 10 0 60941 13500.00000 0 -21377599.822 -12516447.069 -5881763.672 10 0 60941 14400.00000 0 -20586324.369 -12013483.317 -8943714.423 10 0 60941 15300.00000 0 -19411148.520 -11456385.288 -11830895.280 10 0 60941 16200.00000 0 -17866634.555 -10903121.986 -14486847.586 10 0 60941 17100.00000 0 -15980472.434 -10408857.550 -16859647.562 10 0 60941 18000.00000 0 -13792512.925 -10023442.628 -18902940.817 10 0 60941 18900.00000 0 -11353295.819 -9789147.565 -20576862.667 10 0 60941 19800.00000 0 -8722135.681 -9738735.471 -21848824.985 10 0 60941 20700.00000 0 -5964846.764 -9893958.212 -22694153.522 10 0 60941 21600.00000 0 -3151203.901 -10264539.528 -23096563.298 10 0 60941 22500.00000 0 -352247.189 -10847688.115 -23048463.365 10 0 60941 23400.00000 0 2362455.643 -11628160.281 -22551086.136 10 0 60941 24300.00000 0 4927474.170 -12578868.043 -21614440.296 10 0 60941 25200.00000 0 7283996.363 -13662005.076 -20257089.991 10 0 60941 26100.00000 0 9382023.212 -14830641.012 -18505766.548 10 0 60941 27000.00000 0 11182187.091 -16030714.922 -16394822.208 10 0 60941 27900.00000 0 12657120.571 -17203342.352 -13965538.322 10 0 60941 28800.00000 0 13792321.662 -18287337.576 -11265303.105 10 0 60941 29700.00000 0 14586482.974 -19221844.291 -8346676.268 10 0 60941 30600.00000 0 15051274.744 -19948964.112 -5266359.679 10 0 60941 31500.00000 0 15210594.413 -20416272.953 -2084094.659 10 0 60941 32400.00000 0 15099317.382 -20579120.706 1138492.519 10 0 60941 33300.00000 0 14761603.869 -20402619.147 4339074.837 10 0 60941 34200.00000 0 14248834.656 -19863236.366 7455816.194 10 0 60941 35100.00000 0 13617263.204 -18949932.527 10428548.598 10 0 60941 36000.00000 0 12925482.680 -17664790.758 13199913.640 10 0 60941 36900.00000 0 12231813.431 -16023117.690 15716447.954 10 0 60941 37800.00000 0 11591719.133 -14053009.630 17929593.688 10 0 60941 38700.00000 0 11055358.272 -11794401.906 19796616.511 10 0 60941 39600.00000 0 10665371.838 -9297639.577 21281415.295 10 0 60941 40500.00000 0 10454998.393 -6621626.870 22355209.543 10 0 60941 41400.00000 0 10446594.402 -3831629.447 22997092.437 10 0 60941 42300.00000 0 10650621.485 -996817.642 23194439.521 10 0 60941 43200.00000 0 11065143.458 1812350.655 22943165.062 10 0 60941 44100.00000 0 11675855.594 4526802.005 22247820.450 10 0 60941 45000.00000 0 12456646.956 7081466.082 21121531.329 10 0 60941 45900.00000 0 13370674.933 9417734.235 19585772.703 10 0 60941 46800.00000 0 14371909.828 11485656.948 17669983.931 10 0 60941 47700.00000 0 15407087.580 13245788.961 15411028.439 10 0 60941 48600.00000 0 16417991.045 14670604.580 12852505.945 10 0 60941 49500.00000 0 17343965.677 15745422.824 10043928.107 10 0 60941 50400.00000 0 18124564.501 16468801.942 7039771.670 10 0 60941 51300.00000 0 18702210.666 16852384.975 3898426.214 10 0 60941 52200.00000 0 19024763.929 16920201.143 681056.407 10 0 60941 53100.00000 0 19047880.480 16707451.302 -2549598.738 10 0 60941 54000.00000 0 18737063.466 16258828.169 -5730465.131 10 0 60941 54900.00000 0 18069314.273 15626442.565 -8799385.534 10 0 60941 55800.00000 0 17034311.441 14867444.491 -11696357.407 10 0 60941 56700.00000 0 15635064.378 14041441.559 -14364730.066 10 0 60941 57600.00000 0 13888011.867 13207826.416 -16752335.238 10 0 60941 58500.00000 0 11822559.554 12423128.986 -18812526.618 10 0 60941 59400.00000 0 9480075.110 11738508.143 -20505106.219 10 0 60941 60300.00000 0 6912383.391 11197491.203 -21797118.109 10 0 60941 61200.00000 0 4179825.551 10834058.459 -22663493.306 10 0 60941 62100.00000 0 1348964.703 10671154.563 -23087533.225 10 0 60941 63000.00000 0 -1509964.404 10719689.619 -23061222.809 10 0 60941 63900.00000 0 -4325753.673 10978071.332 -22585368.362 10 0 60941 64800.00000 0 -7028954.285 11432286.387 -21669558.896 10 0 60941 65700.00000 0 -9554529.228 12056525.530 -20331953.563 10 0 60941 66600.00000 0 -11844315.428 12814323.640 -18598901.242 10 0 60941 67500.00000 0 -13849194.008 13660164.286 -16504401.616 10 0 60941 68400.00000 0 -15530880.141 14541478.950 -14089420.064 10 0 60941 69300.00000 0 -16863260.491 15400954.857 -11401071.330 10 0 60941 70200.00000 0 -17833225.626 16179052.936 -8491689.178 10 0 60941 71100.00000 0 -18440966.141 16816629.279 -5417801.107 10 0 60941 72000.00000 0 -18699723.649 17257549.769 -2239028.679 10 0 60941 72900.00000 0 -18635010.382 17451188.551 983065.036 10 0 60941 73800.00000 0 -18283332.887 17354706.413 4186158.795 10 0 60941 74700.00000 0 -17690475.443 16935014.824 7308365.031 10 0 60941 75600.00000 0 -16909416.433 16170344.711 10289408.282 10 0 60941 76500.00000 0 -15997965.456 15051355.627 13071768.883 10 0 60941 77400.00000 0 -15016219.782 13581739.870 15601771.583 10 0 60941 78300.00000 0 -14023945.618 11778296.720 17830600.025 10 0 60941 79200.00000 0 -13077992.220 9670473.390 19715219.558 10 0 60941 80100.00000 0 -12229845.222 7299390.695 21219192.445 10 0 60941 81000.00000 0 -11523419.717 4716392.091 22313371.408 10 0 60941 81900.00000 0 -10993183.833 1981173.759 22976459.385 10 0 60941 82800.00000 0 -10662690.322 -840429.706 23195425.311 10 0 60941 83700.00000 0 -10543577.304 -3678915.482 22965767.958 10 0 60941 84600.00000 0 -10635080.520 -6463739.473 22291622.031 10 0 60941 85500.00000 0 -10924078.894 -9125994.001 21185703.119 10 0 60942 0.00000 0 -11385673.473 -11601027.313 19669090.754 10 0 60942 900.00000 0 -11984278.246 -13830898.957 17770850.502 10 0 60942 1800.00000 0 -12675179.055 -15766566.326 15527501.861 10 0 60942 2700.00000 0 -13406498.395 -17369715.441 12982336.925 10 0 60942 3600.00000 0 -14121484.829 -18614155.175 10184602.489 10 0 60942 4500.00000 0 -14761031.956 -19486716.322 7188558.794 10 0 60942 5400.00000 0 -15266320.900 -19987615.622 4052431.950 10 0 60942 6300.00000 0 -15581473.890 -20130267.500 837279.854 10 0 60942 7200.00000 0 -15656104.998 -19940549.730 -2394206.070 10 0 60942 8100.00000 0 -15447657.498 -19455552.927 -5578938.886 10 0 60942 9000.00000 0 -14923425.832 -18721866.272 -8654688.093 10 0 60942 9900.00000 0 -14062173.195 -17793472.456 -11561318.810 10 0 60942 10800.00000 0 -12855273.077 -16729342.135 -14241991.523 10 0 60942 11700.00000 0 -11307323.646 -15590831.623 -16644296.458 10 0 60942 12600.00000 0 -9436206.848 -14438996.283 -18721298.063 10 0 60942 13500.00000 0 -7272588.352 -13331935.721 -20432467.288 10 0 60942 14400.00000 0 -4858878.864 -12322285.274 -21744482.123 10 0 60942 15300.00000 0 -2247700.706 -11454961.594 -22631879.985 10 0 60942 16200.00000 0 500075.100 -10765258.570 -23077549.199 10 0 60942 17100.00000 0 3317637.838 -10277374.162 -23073050.504 10 0 60942 18000.00000 0 6134794.171 -10003429.615 -22618763.422 10 0 60942 18900.00000 0 8880665.314 -9943020.902 -21723856.137 10 0 60942 19800.00000 0 11486410.938 -10083319.135 -20406081.223 10 0 60942 20700.00000 0 13887865.999 -10399713.115 -18691403.149 10 0 60942 21600.00000 0 16027981.121 -10856964.122 -16613466.768 10 0 60942 22500.00000 0 17858966.109 -11410821.555 -14212918.911 10 0 60942 23400.00000 0 19344049.301 -12010028.920 -11536597.994 10 0 60942 24300.00000 0 20458782.005 -12598633.697 -8636608.744 10 0 60942 25200.00000 0 21191836.771 -13118502.506 -5569301.008 10 0 60942 26100.00000 0 21545269.406 -13511935.020 -2394173.180 10 0 60942 27000.00000 0 21534237.105 -13724266.665 827278.293 10 0 60942 27900.00000 0 21186187.415 -13706351.272 4032741.268 10 0 60942 28800.00000 0 20539554.351 -13416820.431 7160279.834 10 0 60942 29700.00000 0 19642017.925 -12824025.975 10149513.870 10 0 60942 30600.00000 0 18548400.712 -11907585.491 12942764.886 10 0 60942 31500.00000 0 17318289.501 -10659467.164 15486147.741 10 0 60942 32400.00000 0 16013480.655 -9084569.273 17730589.125 10 0 60942 33300.00000 0 14695354.561 -7200770.022 19632755.175 10 0 60942 34200.00000 0 13422287.024 -5038444.909 21155872.219 10 0 60942 35100.00000 0 12247203.726 -2639470.060 22270426.495 10 0 60942 36000.00000 0 11215377.924 -55750.631 22954730.599 10 0 60942 36900.00000 0 10362561.879 2652667.560 23195346.423 10 0 60942 37800.00000 0 9713529.073 5419828.160 22987356.476 10 0 60942 38700.00000 0 9281087.964 8176347.089 22334477.703 10 0 60942 39600.00000 0 9065609.123 10852048.286 21249014.278 10 0 60942 40500.00000 0 9055086.889 13378645.745 19751648.347 10 0 60942 41400.00000 0 9225734.925 15692362.498 17871070.393 10 0 60942 42300.00000 0 9543092.964 17736378.713 15643453.730 10 0 60942 43200.00000 0 9963600.603 19463007.104 13111780.624 10 0 60942 44100.00000 0 10436573.952 20835504.149 10325030.668 10 0 60942 45000.00000 0 10906503.311 21829439.842 7337245.122 10 0 60942 45900.00000 0 11315575.555 22433566.580 4206484.074 10 0 60942 46800.00000 0 11606314.306 22650148.502 993696.028 10 0 60942 47700.00000 0 11724224.892 22494735.344 -2238477.784 10 0 60942 48600.00000 0 11620329.923 21995388.667 -5426940.094 10 0 60942 49500.00000 0 11253485.206 21191392.152 -8509389.503 10 0 60942 50400.00000 0 10592374.601 20131500.258 -11425560.928 10 0 60942 51300.00000 0 9617095.990 18871799.933 -14118427.903 10 0 60942 52200.00000 0 8320268.099 17473277.210 -16535340.750 10 0 60942 53100.00000 0 6707608.797 15999193.543 -18629075.990 10 0 60942 54000.00000 0 4797958.553 14512385.028 -20358774.594 10 0 60942 54900.00000 0 2622747.000 13072600.812 -21690749.326 10 0 60942 55800.00000 0 224924.804 11733994.969 -22599144.658 10 0 60942 56700.00000 0 -2342593.814 10542878.893 -23066436.263 10 0 60942 57600.00000 0 -5018911.617 9535829.459 -23083760.883 10 0 60942 58500.00000 0 -7737467.705 8738232.214 -22651071.187 10 0 60942 59400.00000 0 -10428597.409 8163319.659 -21777114.112 10 0 60942 60300.00000 0 -13022224.740 7811742.954 -20479234.874 10 0 60942 61200.00000 0 -15450574.363 7671692.402 -18783012.390 10 0 60942 62100.00000 0 -17650790.008 7719558.557 -16721735.175 10 0 60942 63000.00000 0 -19567350.831 7921102.942 -14335729.735 10 0 60942 63900.00000 0 -21154186.367 8233086.110 -11671556.174 10 0 60942 64800.00000 0 -22376403.985 8605281.898 -8781088.060 10 0 60942 65700.00000 0 -23211559.368 8982791.045 -5720495.401 10 0 60942 66600.00000 0 -23650419.944 9308555.437 -2549151.214 10 0 60942 67500.00000 0 -23697192.429 9525966.574 671516.906 10 0 60942 68400.00000 0 -23369207.888 9581458.578 3879208.153 10 0 60942 69300.00000 0 -22696079.963 9426977.404 7011940.531 10 0 60942 70200.00000 0 -21718373.381 9022223.562 10009231.546 10 0 60942 71100.00000 0 -20485839.513 8336575.475 12813246.176 10 0 60942 72000.00000 0 -19055293.037 7350614.005 15369891.666 10 0 60942 72900.00000 0 -17488217.898 6057185.167 17629839.955 10 0 60942 73800.00000 0 -15848201.254 4461956.884 19549460.042 10 0 60942 74700.00000 0 -14198300.694 2583446.130 21091644.193 10 0 60942 75600.00000 0 -12598452.442 452514.107 22226513.765 10 0 60942 76500.00000 0 -11103026.384 -1888651.609 22931992.310 10 0 60942 77400.00000 0 -9758627.927 -4388028.306 23194235.622 10 0 60942 78300.00000 0 -8602236.811 -6985664.112 23007910.515 10 0 60942 79200.00000 0 -7659759.667 -9615923.052 22376316.359 10 0 60942 80100.00000 0 -6945056.647 -12209979.419 21311345.688 10 0 60942 81000.00000 0 -6459483.478 -14698460.976 19833282.796 10 0 60942 81900.00000 0 -6191969.475 -17014133.595 17970441.785 10 0 60942 82800.00000 0 -6119630.083 -19094517.192 15758648.473 10 0 60942 83700.00000 0 -6208890.316 -20884324.603 13240573.526 10 0 60942 84600.00000 0 -6417073.868 -22337621.215 10464927.217 10 0 60942 85500.00000 0 -6694392.558 -23419613.749 7485529.448 10 0 60943 0.00000 0 -6986253.104 -24107991.258 4360271.965 10 0 60943 900.00000 0 -7235783.990 -24393759.996 1149990.562 10 0 60943 1800.00000 0 -7386474.293 -24281533.763 -2082726.329 10 0 60943 2700.00000 0 -7384811.451 -23789266.584 -5274774.078 10 0 60943 3600.00000 0 -7182803.255 -22947436.393 -8363783.413 10 0 60943 4500.00000 0 -6740274.247 -21797713.757 -11289362.089 10 0 60943 5400.00000 0 -6026835.826 -20391171.818 -13994299.691 10 0 60943 6300.00000 0 -5023443.363 -18786113.903 -16425709.511 10 0 60943 7200.00000 0 -3723471.550 -17045612.105 -18536082.810 10 0 60943 8100.00000 0 -2133260.248 -15234862.729 -20284232.912 10 0 60943 9000.00000 0 -272106.282 -13418472.317 -21636109.283 10 0 60943 9900.00000 0 1828299.164 -11657790.651 -22565464.869 10 0 60943 10800.00000 0 4124963.799 -10008404.580 -23054363.586 10 0 60943 11700.00000 0 6565171.525 -8517898.935 -23093518.520 10 0 60943 12600.00000 0 9088476.474 -7223978.657 -22682455.316 10 0 60943 13500.00000 0 11629028.969 -6153030.064 -21829499.016 10 0 60943 14400.00000 0 14118134.865 -5319179.839 -20551586.394 10 0 60943 15300.00000 0 16486940.332 -4723888.639 -18873909.333 10 0 60943 16200.00000 0 18669129.471 -4356093.266 -16829398.161 10 0 60943 17100.00000 0 20603522.361 -4192887.948 -14458056.824 10 0 60943 18000.00000 0 22236465.825 -4200712.683 -11806164.522 10 0 60943 18900.00000 0 23523918.734 -4336995.481 -8925360.722 10 0 60943 19800.00000 0 24433146.806 -4552176.755 -5871632.361 10 0 60943 20700.00000 0 24943958.697 -4792028.643 -2704223.629 10 0 60943 21600.00000 0 25049434.474 -5000170.449 515510.283 10 0 60943 22500.00000 0 24756118.802 -5120673.825 3725283.437 10 0 60943 23400.00000 0 24083673.220 -5100648.395 6863071.127 10 0 60943 24300.00000 0 23064004.076 -4892699.841 9868291.591 10 0 60943 25200.00000 0 21739903.842 -4457158.365 12682956.020 10 0 60943 26100.00000 0 20163263.134 -3763985.216 15252766.375 10 0 60943 27000.00000 0 18392927.763 -2794278.431 17528141.726 10 0 60943 27900.00000 0 16492289.133 -1541315.404 19465155.376 10 0 60943 28800.00000 0 14526706.757 -11088.715 21026366.544 10 0 60943 29700.00000 0 12560868.067 1777687.913 22181532.317 10 0 60943 30600.00000 0 10656193.099 3794105.384 22908187.427 10 0 60943 31500.00000 0 8868389.798 5996097.175 23192081.416 10 0 60943 32400.00000 0 7245259.717 8331949.318 23027464.883 10 0 60943 33300.00000 0 5824844.064 10742223.060 22417218.722 10 0 60943 34200.00000 0 4633986.632 13162013.788 21372822.584 10 0 60943 35100.00000 0 3687373.587 15523455.676 19914161.311 10 0 60943 36000.00000 0 2987091.015 17758370.674 18069170.720 10 0 60943 36900.00000 0 2522720.105 19800953.573 15873326.968 10 0 60943 37800.00000 0 2271967.776 21590382.271 13368986.712 10 0 60943 38700.00000 0 2201808.085 23073244.306 10604588.319 10 0 60943 39600.00000 0 2270088.125 24205677.145 7633727.598 10 0 60943 40500.00000 0 2427531.833 24955130.774 4514124.542 10 0 60943 41400.00000 0 2620057.580 25301676.176 1306500.465 10 0 60943 42300.00000 0 2791311.094 25238802.026 -1926612.431 10 0 60943 43200.00000 0 2885305.138 24773663.481 -5122104.951 10 0 60943 44100.00000 0 2849051.933 23926770.406 -8217542.583 10 0 60943 45000.00000 0 2635073.886 22731126.675 -11152408.310 10 0 60943 45900.00000 0 2203683.037 21230856.202 -13869309.861 10 0 60943 46800.00000 0 1524929.285 19479373.888 -16315125.282 10 0 60943 47700.00000 0 580131.871 17537179.648 -18442062.029 10 0 60943 48600.00000 0 -637073.237 15469370.186 -20208606.939 10 0 60943 49500.00000 0 -2120216.188 13342975.265 -21580347.048 10 0 60943 50400.00000 0 -3850029.216 11224232.660 -22530644.387 10 0 60943 51300.00000 0 -5795034.449 9175918.081 -23041151.444 10 0 60943 52200.00000 0 -7912658.441 7254843.348 -23102157.691 10 0 60943 53100.00000 0 -10150825.576 5509628.272 -22712761.453 10 0 60943 54000.00000 0 -12449962.203 3978839.079 -21880865.222 10 0 60943 54900.00000 0 -14745326.144 2689569.987 -20622996.274 10 0 60943 55800.00000 0 -16969562.794 1656525.041 -18963958.017 10 0 60943 56700.00000 0 -19055380.032 881635.645 -16936320.792 10 0 60943 57600.00000 0 -20938229.762 354226.345 -14579763.901 10 0 60943 58500.00000 0 -22558884.261 51718.195 -11940283.345 10 0 60943 59400.00000 0 -23865800.620 -59163.392 -9069282.074 10 0 60943 60300.00000 0 -24817175.996 -20730.310 -6022561.482 10 0 60943 61200.00000 0 -25382609.816 117704.738 -2859234.447 10 0 60943 62100.00000 0 -25544305.828 302155.341 359418.708 10 0 60943 63000.00000 0 -25297766.250 476480.117 3571129.353 10 0 60943 63900.00000 0 -24651951.345 584986.867 6713832.492 10 0 60943 64800.00000 0 -23628899.797 575013.017 9726849.472 10 0 60943 65700.00000 0 -22262827.152 399374.867 12552040.022 10 0 60943 66600.00000 0 -20598740.748 18583.970 15134903.036 10 0 60943 67500.00000 0 -18690628.790 -597261.065 17425606.790 10 0 60943 68400.00000 0 -16599298.239 -1466985.681 19379930.731 10 0 60943 69300.00000 0 -14389949.936 -2597315.192 20960102.595 10 0 60943 70200.00000 0 -12129589.765 -3982358.351 22135516.431 10 0 60943 71100.00000 0 -9884381.005 -5603621.272 22883319.018 10 0 60943 72000.00000 0 -7717045.412 -7430552.994 23188854.135 10 0 60943 72900.00000 0 -5684418.692 -9421602.547 23045956.279 10 0 60943 73800.00000 0 -3835260.048 -11525746.719 22457087.635 10 0 60943 74700.00000 0 -2208405.682 -13684428.356 21433314.394 10 0 60943 75600.00000 0 -831342.567 -15833827.980 19994121.060 10 0 60943 76500.00000 0 280737.801 -17907377.197 18167063.964 10 0 60943 77400.00000 0 1125365.213 -19838411.550 15987268.101 10 0 60943 78300.00000 0 1712676.872 -21562853.658 13496774.332 10 0 60943 79200.00000 0 2064766.906 -23021815.021 10743747.057 10 0 60943 80100.00000 0 2214524.906 -24164007.013 7781555.698 10 0 60943 81000.00000 0 2204011.038 -24947858.443 4667746.296 10 0 60943 81900.00000 0 2082435.485 -25343248.483 1462922.499 10 0 60943 82800.00000 0 1903827.626 -25332779.292 -1770442.171 10 0 60943 83700.00000 0 1724494.448 -24912531.865 -4969236.730 10 0 60943 84600.00000 0 1600377.589 -24092270.579 -8070964.220 10 0 60943 85500.00000 0 1584423.502 -22895085.653 -11014985.648 99